Weather History for KAEL - February, 2013

Change the Weather History Date:

Thursday, February 14, 2013

  Actual Average (KMCW) Record (KMCW)
Temperature  
Mean Temperature 27 °F 20 °F  
Max Temperature 37 °F 29 °F 58 °F (1954)
Min Temperature 17 °F 12 °F -20 °F (1951)
Degree Days  
Heating Degree Days 38 45  
Month to date heating degree days 653  
Since 1 July heating degree days 5264  
Cooling Degree Days 0 0  
Month to date cooling degree days 0  
Year to date cooling degree days 0  
Moisture  
Dew Point 26 °F    
Average Humidity 84    
Maximum Humidity 100    
Minimum Humidity 65    
Precipitation  
Precipitation 0.00 in 0.03 in 1.03 in (1915)
Month to date precipitation 0.45  
Year to date precipitation 1.27  
Snow  
Snow 0.00 in 0.30 in 4.50 in (2003)
Month to date snowfall 4.3  
Since 1 July snowfall 29.1  
Snow Depth -    
Sea Level Pressure  
Sea Level Pressure 29.86 in    
Wind  
Wind Speed 11 mph (NW)    
Max Wind Speed 16 mph    
Max Gust Speed 25 mph    
Visibility 9 miles    
Events Rain , Snow    
T = Trace of Precipitation, MM = Missing Value Source: NWS Daily Summary

Daily Weather History Graph

Daily Weather History Graph

Search for Another Location

Airport or City:

Trip Planner

Search our weather history database for the weather conditions in past years. The results will help you decide how hot, cold, wet, or windy it might be!

Date:

Astronomy

Feb. 14, 2013 Rise Set
Actual Time 7:13 AM CST 5:42 PM CST
Civil Twilight 6:43 AM CST 6:12 PM CST
Nautical Twilight 6:10 AM CST 6:45 PM CST
Astronomical Twilight 5:36 AM CST 7:19 PM CST
Moon 9:04 AM CST (2/14) 10:58 PM CST (2/14)
Length of Visible Light 11h 28m
Length of Day
10h 29m
Waxing Crescent, 22% of the Moon is Illuminated
Feb 14
Waxing Crescent
Feb 17
First Quarter
Feb 25
Full
Mar 4
Last Quarter
Mar 11
New

Hourly Weather History & Observations

Time (CST) Temp. Windchill Dew Point Humidity Pressure Visibility Wind Dir Wind Speed Gust Speed Precip Events Conditions
12:09 AM 37.4 °F 30.8 °F 33.8 °F 87% 29.57 in 10.0 mi West 9.2 mph 16.1 mph N/A   Overcast
12:30 AM 37.4 °F 30.8 °F 35.6 °F 93% 29.58 in 7.0 mi WNW 9.2 mph 20.7 mph N/A Rain Light Rain
12:49 AM 35.6 °F 27.5 °F 35.6 °F 100% 29.58 in 7.0 mi West 11.5 mph 17.3 mph N/A   Light Drizzle
1:09 AM 35.6 °F 26.2 °F 33.8 °F 93% 29.58 in 10.0 mi West 15.0 mph 23.0 mph N/A   Overcast
1:30 AM 35.6 °F 26.6 °F 33.8 °F 93% 29.59 in 10.0 mi WNW 13.8 mph 23.0 mph N/A   Overcast
1:49 AM 33.8 °F 24.3 °F 33.8 °F 100% 29.59 in 10.0 mi WNW 13.8 mph 24.2 mph N/A   Overcast
2:09 AM 33.8 °F 24.3 °F 33.8 °F 100% 29.60 in 10.0 mi WNW 13.8 mph 25.3 mph N/A   Overcast
2:30 AM 33.8 °F 23.9 °F 33.8 °F 100% 29.61 in 10.0 mi WNW 15.0 mph 23.0 mph N/A   Overcast
2:49 AM 33.8 °F 24.3 °F 33.8 °F 100% 29.61 in 7.0 mi NW 13.8 mph 19.6 mph N/A   Overcast
3:10 AM 33.8 °F 24.8 °F 33.8 °F 100% 29.62 in 7.0 mi NW 12.7 mph 24.2 mph N/A   Overcast
3:29 AM 33.8 °F 24.3 °F 33.8 °F 100% 29.62 in 4.0 mi NW 13.8 mph 23.0 mph N/A Snow Light Snow
3:49 AM 33.8 °F 24.3 °F 33.8 °F 100% 29.64 in 5.0 mi NW 13.8 mph 19.6 mph N/A   Overcast
4:10 AM 33.8 °F 23.5 °F 33.8 °F 100% 29.65 in 5.0 mi NW 16.1 mph 24.2 mph N/A   Overcast
4:29 AM 33.8 °F 25.3 °F 32.0 °F 93% 29.67 in 5.0 mi NW 11.5 mph 21.9 mph N/A Snow Light Snow
4:49 AM 33.8 °F 25.3 °F 32.0 °F 93% 29.69 in 4.0 mi NW 11.5 mph 20.7 mph N/A Snow Light Snow
5:09 AM 33.8 °F 25.3 °F 32.0 °F 93% 29.71 in 5.0 mi NNW 11.5 mph 20.7 mph N/A   Overcast
5:29 AM 33.8 °F 25.8 °F 32.0 °F 93% 29.72 in 7.0 mi NW 10.4 mph 19.6 mph N/A   Overcast
5:50 AM 33.8 °F 24.3 °F 32.0 °F 93% 29.72 in 7.0 mi NNW 13.8 mph 18.4 mph N/A   Overcast
6:09 AM 33.8 °F 25.8 °F 30.2 °F 87% 29.74 in 7.0 mi NW 10.4 mph 18.4 mph N/A   Overcast
6:29 AM 33.8 °F 25.8 °F 30.2 °F 87% 29.75 in 10.0 mi NW 10.4 mph 17.3 mph N/A   Mostly Cloudy
6:50 AM 33.8 °F 25.3 °F 30.2 °F 87% 29.77 in 10.0 mi NNW 11.5 mph 17.3 mph N/A   Overcast
7:09 AM 32.0 °F 25.6 °F 30.2 °F 93% 29.78 in 10.0 mi NNW 6.9 mph 16.1 mph N/A   Overcast
7:29 AM 32.0 °F 24.8 °F 28.4 °F 87% 29.79 in 10.0 mi NNW 8.1 mph 17.3 mph N/A   Overcast
7:50 AM 32.0 °F 25.6 °F 28.4 °F 87% 29.80 in 10.0 mi NW 6.9 mph - N/A   Mostly Cloudy
8:09 AM 32.0 °F 26.4 °F 28.4 °F 87% 29.80 in 10.0 mi NW 5.8 mph - N/A   Scattered Clouds
8:30 AM 32.0 °F 25.6 °F 28.4 °F 87% 29.80 in 10.0 mi NNW 6.9 mph - N/A   Clear
8:49 AM 33.8 °F 26.4 °F 28.4 °F 81% 29.80 in 10.0 mi NNW 9.2 mph - N/A   Clear
9:10 AM 33.8 °F 27.0 °F 28.4 °F 81% 29.81 in 10.0 mi NW 8.1 mph - N/A   Clear
9:29 AM 33.8 °F 27.7 °F 28.4 °F 81% 29.82 in 10.0 mi NW 6.9 mph - N/A   Clear
9:49 AM 33.8 °F 27.7 °F 28.4 °F 81% 29.82 in 10.0 mi WNW 6.9 mph - N/A   Scattered Clouds
10:10 AM 33.8 °F 28.6 °F 30.2 °F 87% 29.84 in 10.0 mi WNW 5.8 mph - N/A   Scattered Clouds
10:29 AM 33.8 °F 27.0 °F 30.2 °F 87% 29.84 in 10.0 mi West 8.1 mph - N/A   Mostly Cloudy
10:50 AM 33.8 °F 25.8 °F 30.2 °F 87% 29.85 in 7.0 mi WNW 10.4 mph - N/A   Mostly Cloudy
11:09 AM 33.8 °F 27.0 °F 30.2 °F 87% 29.85 in 10.0 mi WNW 8.1 mph - N/A   Mostly Cloudy
11:30 AM 33.8 °F 26.4 °F 30.2 °F 87% 29.86 in 7.0 mi WNW 9.2 mph - N/A   Mostly Cloudy
11:49 AM 33.8 °F 26.4 °F 30.2 °F 87% 29.86 in 10.0 mi WNW 9.2 mph 17.3 mph N/A   Mostly Cloudy
12:10 PM 33.8 °F 26.4 °F 30.2 °F 87% 29.86 in 7.0 mi NW 9.2 mph - N/A   Scattered Clouds
12:29 PM 33.8 °F 25.8 °F 28.4 °F 81% 29.87 in 7.0 mi NW 10.4 mph - N/A   Mostly Cloudy
12:50 PM 33.8 °F 27.7 °F 28.4 °F 81% 29.87 in 10.0 mi NW 6.9 mph - N/A   Overcast
1:09 PM 33.8 °F 25.3 °F 28.4 °F 81% 29.87 in 10.0 mi NW 11.5 mph 17.3 mph N/A   Mostly Cloudy
1:30 PM 33.8 °F 25.8 °F 28.4 °F 81% 29.88 in 10.0 mi NW 10.4 mph 17.3 mph N/A   Mostly Cloudy
1:49 PM 33.8 °F 25.3 °F 26.6 °F 75% 29.88 in 10.0 mi WNW 11.5 mph 21.9 mph N/A   Overcast
2:09 PM 33.8 °F 25.8 °F 24.8 °F 70% 29.88 in 10.0 mi NW 10.4 mph - N/A   Overcast
2:30 PM 33.8 °F 25.3 °F 23.0 °F 65% 29.89 in 10.0 mi NW 11.5 mph 18.4 mph N/A   Mostly Cloudy
2:49 PM 33.8 °F 25.8 °F 24.8 °F 70% 29.90 in 10.0 mi NW 10.4 mph 17.3 mph N/A   Scattered Clouds
3:09 PM 33.8 °F 25.8 °F 26.6 °F 75% 29.91 in 10.0 mi WNW 10.4 mph 17.3 mph N/A   Scattered Clouds
3:30 PM 32.0 °F 23.6 °F 26.6 °F 80% 29.92 in 10.0 mi NW 10.4 mph 16.1 mph N/A   Clear
3:49 PM 32.0 °F 24.8 °F 26.6 °F 80% 29.93 in 10.0 mi NW 8.1 mph 19.6 mph N/A   Clear
4:09 PM 30.2 °F 21.3 °F 26.6 °F 86% 29.95 in 10.0 mi NW 10.4 mph 17.3 mph N/A   Scattered Clouds
4:30 PM 30.2 °F 19.8 °F 26.6 °F 86% 29.96 in 10.0 mi NW 13.8 mph 17.3 mph N/A   Scattered Clouds
4:49 PM 28.4 °F 18.5 °F 24.8 °F 86% 29.97 in 10.0 mi NW 11.5 mph 21.9 mph N/A   Scattered Clouds
5:09 PM 28.4 °F 18.0 °F 23.0 °F 80% 29.98 in 10.0 mi NW 12.7 mph 19.6 mph N/A   Scattered Clouds
5:30 PM 28.4 °F 17.5 °F 21.2 °F 74% 29.99 in 10.0 mi NW 13.8 mph 21.9 mph N/A   Clear
5:49 PM 26.6 °F 15.2 °F 19.4 °F 74% 30.01 in 10.0 mi NW 13.8 mph 23.0 mph N/A   Clear
6:09 PM 26.6 °F 14.7 °F 19.4 °F 74% 30.02 in 10.0 mi NNW 15.0 mph 21.9 mph N/A   Clear
6:30 PM 26.6 °F 15.2 °F 17.6 °F 69% 30.03 in 10.0 mi NW 13.8 mph 18.4 mph N/A   Clear
6:50 PM 24.8 °F 14.6 °F 17.6 °F 74% 30.05 in 10.0 mi NNW 10.4 mph 18.4 mph N/A   Clear
7:09 PM 24.8 °F 11.9 °F 17.6 °F 74% 30.06 in 10.0 mi NNW 16.1 mph 23.0 mph N/A   Clear
7:29 PM 24.8 °F 11.9 °F 15.8 °F 69% 30.06 in 10.0 mi NNW 16.1 mph 24.2 mph N/A   Clear
7:49 PM 24.8 °F 14.0 °F 15.8 °F 69% 30.07 in 10.0 mi NW 11.5 mph 23.0 mph N/A   Clear
8:10 PM 23.0 °F 12.4 °F 15.8 °F 74% 30.08 in 10.0 mi NNW 10.4 mph 18.4 mph N/A   Clear
8:29 PM 23.0 °F 11.7 °F 15.8 °F 74% 30.09 in 10.0 mi NW 11.5 mph 21.9 mph N/A   Clear
8:49 PM 21.2 °F 10.1 °F 15.8 °F 80% 30.10 in 10.0 mi NW 10.4 mph 18.4 mph N/A   Clear
9:10 PM 21.2 °F 8.9 °F 12.2 °F 68% 30.10 in 10.0 mi NW 12.7 mph 20.7 mph N/A   Clear
9:29 PM 21.2 °F 10.1 °F 12.2 °F 68% 30.11 in 10.0 mi NW 10.4 mph 18.4 mph N/A   Clear
9:49 PM 19.4 °F 7.2 °F 14.0 °F 80% 30.12 in 10.0 mi NW 11.5 mph 17.3 mph N/A   Clear
10:09 PM 19.4 °F 7.9 °F 14.0 °F 80% 30.12 in 10.0 mi NW 10.4 mph 16.1 mph N/A   Clear
10:29 PM 19.4 °F 10.4 °F 12.2 °F 74% 30.13 in 10.0 mi NW 6.9 mph - N/A   Clear
10:50 PM 19.4 °F 8.6 °F 12.2 °F 74% 30.14 in 10.0 mi NW 9.2 mph 18.4 mph N/A   Clear
11:09 PM 17.6 °F 5.7 °F 12.2 °F 79% 30.14 in 10.0 mi NW 10.4 mph - N/A   Clear
11:30 PM 17.6 °F 8.2 °F 12.2 °F 79% 30.14 in 10.0 mi NW 6.9 mph - N/A   Clear
11:50 PM 17.6 °F 8.2 °F 10.4 °F 73% 30.15 in 10.0 mi NW 6.9 mph 18.4 mph N/A   Clear